Kozani, Greece

12:24 PM EET on January 16, 2018 (GMT +0200)
Kozani

Weather History for LGKZ - September, 2012

Change the Weather History Date:

Thursday, September 20, 2012

  Actual Average Record
Temperature  
Mean Temperature 66 °F -  
Max Temperature 75 °F - - ()
Min Temperature 57 °F - - ()
Cooling Degree Days 1    
Growing Degree Days 16 (Base 50)    
Moisture  
Dew Point 55 °F    
Average Humidity 79    
Maximum Humidity 94    
Minimum Humidity 44    
Precipitation  
Precipitation 0.00 in - - ()
Sea Level Pressure  
Sea Level Pressure 29.96 in    
Wind  
Wind Speed 3 mph ()    
Max Wind Speed 13 mph    
Max Gust Speed -    
Visibility 6.2 miles    
Events Rain    
T = Trace of Precipitation, MM = Missing Value Source: Averaged Metar Reports

Daily Weather History Graph

Daily Weather History Graph

Search for Another Location

Airport or City:

Trip Planner

Search our weather history database for the weather conditions in past years. The results will help you decide how hot, cold, wet, or windy it might be!

Date:

Astronomy

Sep. 20, 2012 Rise Set
Actual Time 7:18 AM EEST 7:33 PM EEST
Civil Twilight 6:51 AM EEST 8:00 PM EEST
Nautical Twilight 6:19 AM EEST 8:31 PM EEST
Astronomical Twilight 5:47 AM EEST 9:04 PM EEST
Moon 12:16 PM EEST (9/20) 10:17 PM EEST (9/20)
Length of Visible Light 13h 08m
Length of Day
12h 14m
Waxing Crescent, 23% of the Moon is Illuminated
Sep 20
Waxing Crescent
Sep 22
First Quarter
Sep 30
Full
Oct 8
Last Quarter
Oct 15
New

Hourly Weather History & Observations

Time (EEST) Temp. Dew Point Humidity Pressure Visibility Wind Dir Wind Speed Gust Speed Precip Events Conditions
12:20 AM 62.6 °F 57.2 °F 82% 29.98 in - NNW 4.6 mph - N/A   Unknown
12:50 AM 62.6 °F 57.2 °F 82% 29.98 in - Variable 3.5 mph - N/A   Unknown
1:20 AM 60.8 °F 57.2 °F 88% 29.95 in - Variable 3.5 mph - N/A   Unknown
1:50 AM 60.8 °F 57.2 °F 88% 29.95 in - Variable 1.2 mph - N/A   Unknown
2:20 AM 60.8 °F 57.2 °F 88% 29.95 in - NW 4.6 mph - N/A   Unknown
2:50 AM 59.0 °F 57.2 °F 94% 29.95 in - Variable 2.3 mph - N/A   Unknown
3:20 AM 60.8 °F 57.2 °F 88% 29.95 in - Variable 3.5 mph - N/A   Unknown
3:50 AM 59.0 °F 57.2 °F 94% 29.95 in - Variable 3.5 mph - N/A   Unknown
4:20 AM 57.2 °F 55.4 °F 94% 29.95 in - Variable 3.5 mph - N/A   Unknown
4:50 AM 59.0 °F 55.4 °F 88% 29.95 in - NNW 4.6 mph - N/A   Unknown
5:20 AM 57.2 °F 55.4 °F 94% 29.95 in - NNW 4.6 mph - N/A   Unknown
5:50 AM 57.2 °F 55.4 °F 94% 29.95 in - Variable 3.5 mph - N/A   Unknown
6:20 AM 57.2 °F 55.4 °F 94% 29.92 in - Variable 3.5 mph - N/A   Unknown
6:50 AM 57.2 °F 55.4 °F 94% 29.95 in - NNE 4.6 mph - N/A   Unknown
7:20 AM 57.2 °F 55.4 °F 94% 29.95 in - Variable 3.5 mph - N/A   Unknown
7:50 AM 57.2 °F 55.4 °F 94% 29.95 in - NNW 4.6 mph - N/A   Unknown
8:20 AM 60.8 °F 57.2 °F 88% 29.95 in - Variable 2.3 mph - N/A   Unknown
8:50 AM 64.4 °F 59.0 °F 83% 29.95 in - Calm Calm - N/A   Clear
10:50 AM 69.8 °F 55.4 °F 60% 29.95 in 6.2 mi East 4.6 mph - N/A   Partly Cloudy
11:50 AM 71.6 °F 55.4 °F 57% 29.95 in 6.2 mi SE 4.6 mph - N/A   Scattered Clouds
12:50 PM 75.2 °F 53.6 °F 47% 29.95 in 6.2 mi Calm Calm - N/A   Scattered Clouds
1:50 PM 73.4 °F 51.8 °F 47% 29.95 in 6.2 mi SE 4.6 mph - N/A   Scattered Clouds
2:50 PM 73.4 °F 50.0 °F 44% 29.95 in 6.2 mi Calm Calm - N/A   Scattered Clouds
3:20 PM 73.4 °F 50.0 °F 44% 29.95 in - SW 12.7 mph - N/A Rain Light Rain
3:50 PM 66.2 °F 55.4 °F 68% 29.98 in - WNW 10.4 mph - N/A Rain Light Rain
4:20 PM 60.8 °F 53.6 °F 77% 29.98 in - WNW 8.1 mph - N/A Rain Light Rain
4:50 PM 60.8 °F 55.4 °F 82% 29.95 in - Variable 2.3 mph - N/A Rain Light Rain
5:20 PM 62.6 °F 57.2 °F 82% 29.95 in - Variable 3.5 mph - N/A   Unknown
5:50 PM 62.6 °F 57.2 °F 82% 29.95 in - Variable 3.5 mph - N/A   Unknown
6:20 PM 64.4 °F 53.6 °F 68% 29.95 in - Variable 3.5 mph - N/A Rain Light Rain
6:50 PM 66.2 °F 55.4 °F 68% 29.98 in - ESE 4.6 mph - N/A   Unknown
7:20 PM 62.6 °F 57.2 °F 82% 29.98 in - Variable 1.2 mph - N/A   Unknown
7:50 PM 60.8 °F 55.4 °F 82% 29.98 in - Variable 1.2 mph - N/A   Unknown
8:20 PM 59.0 °F 55.4 °F 88% 29.98 in - Variable 2.3 mph - N/A   Unknown
8:50 PM 59.0 °F 55.4 °F 88% 29.98 in - NNW 4.6 mph - N/A   Unknown
9:20 PM 59.0 °F 53.6 °F 82% 29.98 in - NNE 4.6 mph - N/A   Unknown
9:50 PM 59.0 °F 51.8 °F 77% 30.01 in - Variable 2.3 mph - N/A   Unknown
10:20 PM 57.2 °F 51.8 °F 82% 30.01 in - Variable 2.3 mph - N/A   Unknown
10:50 PM 57.2 °F 51.8 °F 82% 30.01 in - Variable 2.3 mph - N/A   Unknown
11:20 PM 59.0 °F 50.0 °F 72% 30.01 in - SW 6.9 mph - N/A   Unknown
11:50 PM 60.8 °F 48.2 °F 63% 30.01 in - SW 6.9 mph - N/A   Unknown